"Period start","avg(HW err(1)/warn(2) (#))","avg(Visibility (m))","avg(Weather code (#))","avg(Precip intensity (mm/h))","min(HW err(1)/warn(2) (#))","max(HW err(1)/warn(2) (#))","std(HW err(1)/warn(2) (#))","med(HW err(1)/warn(2) (#))","min(Visibility (m))","max(Visibility (m))","std(Visibility (m))","med(Visibility (m))","min(Weather code (#))","max(Weather code (#))","std(Weather code (#))","med(Weather code (#))","min(Precip intensity (mm/h))","max(Precip intensity (mm/h))","std(Precip intensity (mm/h))","med(Precip intensity (mm/h))"
2017-05-10 00:00:00,2,15043,71,0.18,2,2,0,2,11044,31035,5772,12373,71,71,0,71,0.05,0.55,0.14,0.15
2017-05-10 00:10:00,2,14786,71,0.32,2,2,0,2,9609,19155,3521,15143,71,71,0,71,0.05,0.90,0.26,0.20
2017-05-10 00:20:00,2,12652,71,0.29,2,2,0,2,9535,16195,2188,12382,71,71,0,71,0.15,0.55,0.12,0.30
2017-05-10 00:30:00,2,13998,71,0.24,2,2,0,2,9935,17985,2613,14868,71,71,0,71,0.05,0.60,0.18,0.15
2017-05-10 00:40:00,2,14558,71,0.39,2,2,0,2,9214,23733,4225,13522,71,71,0,71,0.10,0.80,0.20,0.38
2017-05-10 00:50:00,2,12140,71,0.54,2,2,0,2,8607,15942,2406,11388,71,71,0,71,0.10,0.80,0.21,0.57
2017-05-10 01:00:00,2,14970,71,0.27,2,2,0,2,10070,25069,3880,13819,71,71,0,71,0.10,0.70,0.17,0.23
2017-05-10 01:10:00,2,18757,71,0.24,2,2,0,2,11858,26261,3923,19528,71,71,0,71,0.05,0.70,0.18,0.15
2017-05-10 01:20:00,2,17518,71,0.20,2,2,0,2,11631,28212,5141,16198,71,71,0,71,0.05,0.40,0.14,0.10
2017-05-10 01:30:00,2,18357,71,0.12,2,2,0,2,13728,24533,3816,17320,71,71,0,71,0.00,0.30,0.11,0.10
2017-05-10 01:40:00,2,12222,71,0.47,2,2,0,2,8181,16720,2966,12286,71,71,0,71,0.10,0.90,0.26,0.43
2017-05-10 01:50:00,2,9804,71,0.68,2,2,0,2,6045,13822,2128,9842,71,71,0,71,0.20,1.55,0.49,0.42
2017-05-10 02:00:00,2,7258,71,0.97,2,2,0,2,5550,9495,1337,7166,71,71,0,71,0.50,1.55,0.30,0.98
2017-05-10 02:10:00,2,7528,71,0.79,2,2,0,2,4708,13147,2584,7352,71,71,0,71,0.20,1.65,0.42,0.85
2017-05-10 02:20:00,2,6689,71,0.97,2,2,0,2,5658,8695,992,6505,71,71,0,71,0.50,1.85,0.42,0.95
2017-05-10 02:30:00,2,8385,71,0.65,2,2,0,2,6443,14625,2443,7316,71,71,0,71,0.20,1.55,0.36,0.57
2017-05-10 02:40:00,2,8904,71,0.35,2,2,0,2,6949,10706,1311,9192,71,71,0,71,0.15,0.50,0.12,0.42
2017-05-10 02:50:00,2,9347,71,0.63,2,2,0,2,6322,14284,2509,8958,71,71,0,71,0.00,1.50,0.44,0.57
2017-05-10 03:00:00,2,14084,71,0.28,2,2,0,2,9932,21274,3830,12600,71,71,0,71,0.00,0.65,0.23,0.23
2017-05-10 03:10:00,2,13861,71,0.14,2,2,0,2,10318,20264,2699,13020,71,71,0,71,0.00,0.40,0.13,0.10
2017-05-10 03:20:00,2,13438,71,0.20,2,2,0,2,9105,20344,3542,12351,71,71,0,71,0.05,0.55,0.14,0.17
2017-05-10 03:30:00,2,15600,71,0.11,2,2,0,2,11853,24911,4276,13787,71,71,0,71,0.00,0.30,0.09,0.08
2017-05-10 03:40:00,2,15191,71,0.10,2,2,0,2,10089,21002,3794,14522,71,71,0,71,0.00,0.25,0.07,0.08
2017-05-10 03:50:00,2,19466,71,0.14,2,2,0,2,12377,25032,4436,20384,71,71,0,71,0.00,0.50,0.16,0.08
2017-05-10 04:00:00,2,18794,71,0.17,2,2,0,2,10785,40099,7565,17608,71,71,0,71,0.00,0.45,0.16,0.12
2017-05-10 04:10:00,2,19268,71,0.11,2,2,0,2,10969,27834,5031,19097,71,71,0,71,0.05,0.30,0.08,0.10
2017-05-10 04:20:00,2,18398,71,0.04,2,2,0,2,11409,33487,7652,14134,71,71,0,71,0.00,0.10,0.04,0.03
2017-05-10 04:30:00,2,17471,71,0.07,2,2,0,2,10691,30073,5695,15922,71,71,0,71,0.00,0.50,0.15,0.00
2017-05-10 04:40:00,2,24010,39,0.00,2,2,0,2,17164,30122,3839,23828,0,71,35,71,0.00,0.00,0.00,0.00
2017-05-10 04:50:00,2,17622,59,0.03,2,2,0,2,14328,22946,2516,17474,0,77,29,71,0.00,0.10,0.04,0.00
2017-05-10 05:00:00,2,14934,71,0.06,2,2,0,2,10418,20303,2993,14260,71,71,0,71,0.00,0.20,0.07,0.05
2017-05-10 05:10:00,2,14086,71,0.08,2,2,0,2,7384,23921,4521,13540,71,71,0,71,0.00,0.15,0.06,0.10
2017-05-10 05:20:00,2,11352,71,0.10,2,2,0,2,8561,14835,1837,11262,71,71,0,71,0.00,0.25,0.07,0.08
2017-05-10 05:30:00,2,12432,71,0.10,2,2,0,2,8709,16746,2285,11925,71,71,0,71,0.00,0.30,0.11,0.05
2017-05-10 05:40:00,2,14751,71,0.17,2,2,0,2,9344,26225,4447,13443,71,71,0,71,0.00,0.40,0.12,0.17
2017-05-10 05:50:00,2,10009,71,0.57,2,2,0,2,7582,15953,2398,9216,71,71,0,71,0.10,0.95,0.24,0.65
2017-05-10 06:00:00,2,10322,71,0.47,2,2,0,2,7241,15627,2242,9764,71,71,0,71,0.05,1.10,0.29,0.42
2017-05-10 06:10:00,2,15290,71,0.32,2,2,0,2,12636,19585,2146,14786,71,71,0,71,0.15,0.55,0.13,0.33
2017-05-10 06:20:00,2,22224,71,0.14,2,2,0,2,8336,34723,6865,21867,71,71,0,71,0.00,0.55,0.15,0.10
2017-05-10 06:30:00,2,21173,71,0.11,2,2,0,2,13312,32093,5870,21910,71,71,0,71,0.00,0.30,0.11,0.05
2017-05-10 06:40:00,2,26531,72,0.03,2,2,0,2,18749,35196,4547,25755,71,77,2,71,0.00,0.10,0.03,0.03
2017-05-10 06:50:00,2,23854,75,0.06,2,2,0,2,13306,37583,7987,19952,71,77,3,77,0.00,0.40,0.12,0.00
2017-05-10 07:00:00,2,35917,75,0.01,2,2,0,2,25051,47266,7860,32644,71,77,3,77,0.00,0.05,0.02,0.00
2017-05-10 07:10:00,2,12556,72,0.09,2,2,0,2,9127,15682,2243,13370,71,77,2,71,0.00,0.20,0.07,0.08
2017-05-10 07:20:00,2,10217,71,0.21,2,2,0,2,7326,14631,2289,9818,71,71,0,71,0.05,0.65,0.18,0.17
2017-05-10 07:30:00,2,14277,71,0.12,2,2,0,2,7867,21138,4120,13340,71,71,0,71,0.00,0.35,0.10,0.12
2017-05-10 07:40:00,2,12492,71,0.15,2,2,0,2,8419,17810,3495,12333,71,71,0,71,0.00,0.50,0.17,0.08
2017-05-10 07:50:00,2,13435,57,0.10,2,2,0,2,7680,17705,3765,13723,0,71,28,71,0.00,0.60,0.18,0.00
2017-05-10 08:00:00,2,11800,71,0.32,2,2,0,2,4517,24349,6068,10598,71,71,0,71,0.00,1.25,0.39,0.12
2017-05-10 08:10:00,2,10528,71,0.28,2,2,0,2,5871,16263,3531,10662,71,71,0,71,0.00,0.85,0.29,0.20
2017-05-10 08:20:00,2,8468,71,0.41,2,2,0,2,4113,17037,3541,8050,71,71,0,71,0.00,1.15,0.36,0.28
2017-05-10 08:30:00,2,6688,71,0.68,2,2,0,2,5362,8659,1116,6258,71,71,0,71,0.45,0.95,0.18,0.65
2017-05-10 08:40:00,2,7472,71,0.35,2,2,0,2,5558,9085,954,7465,71,71,0,71,0.15,0.75,0.20,0.23
2017-05-10 08:50:00,2,6482,71,0.81,2,2,0,2,2209,13126,2927,6415,71,71,0,71,0.05,2.30,0.68,0.65
2017-05-10 09:00:00,2,5811,71,0.96,2,2,0,2,3583,10233,2268,5200,71,71,0,71,0.10,2.55,0.72,0.73
2017-05-10 09:10:00,2,11563,71,0.67,2,2,0,2,3038,22046,5972,10404,71,71,0,71,0.00,2.70,0.85,0.30
2017-05-10 09:20:00,2,6326,71,1.11,2,2,0,2,2664,12820,3001,6322,71,71,0,71,0.10,2.80,0.72,0.90
2017-05-10 09:30:00,2,5990,71,1.24,2,2,0,2,3201,14439,3169,5044,71,71,0,71,0.10,2.05,0.63,1.33
2017-05-10 09:40:00,2,18959,71,0.26,2,2,0,2,4002,30221,8981,19656,71,71,0,71,0.00,1.00,0.37,0.05
2017-05-10 09:50:00,2,9384,71,0.95,2,2,0,2,3702,25361,7416,5917,71,71,0,71,0.00,1.70,0.52,1.07
2017-05-10 10:00:00,2,10709,71,0.49,2,2,0,2,6367,19797,4627,8744,71,71,0,71,0.00,0.95,0.36,0.50
2017-05-10 10:10:00,2,13335,71,0.30,2,2,0,2,7512,26923,5591,12502,71,71,0,71,0.05,0.85,0.28,0.20
2017-05-10 10:20:00,2,18464,71,0.12,2,2,0,2,14354,23252,2927,18368,71,71,0,71,0.00,0.35,0.09,0.10
2017-05-10 10:30:00,2,13713,72,0.49,2,2,0,2,4388,32287,8049,14012,71,77,2,71,0.00,2.00,0.59,0.30
2017-05-10 10:40:00,2,7747,71,0.82,2,2,0,2,3457,14486,2863,8010,71,71,0,71,0.15,1.85,0.51,0.78
2017-05-10 10:50:00,2,4451,71,2.32,2,2,0,2,2009,12471,3206,3280,71,71,0,71,0.30,4.10,1.25,2.08
2017-05-10 11:00:00,2,8096,71,1.71,2,2,0,2,1768,19263,6277,6512,71,71,0,71,0.05,3.90,1.49,1.07
2017-05-10 11:10:00,2,13241,71,0.24,2,2,0,2,7887,18740,3574,14137,71,71,0,71,0.10,0.65,0.15,0.20
2017-05-10 11:20:00,2,9777,71,0.29,2,2,0,2,6848,13554,2139,10322,71,71,0,71,0.10,0.60,0.15,0.28
2017-05-10 11:30:00,2,10757,71,0.34,2,2,0,2,6534,18596,3847,10426,71,71,0,71,0.00,0.65,0.19,0.33
2017-05-10 11:40:00,2,7698,71,0.42,2,2,0,2,3772,13978,2939,7504,71,71,0,71,0.05,1.05,0.33,0.35
2017-05-10 11:50:00,2,5104,71,0.64,2,2,0,2,2275,7705,1612,5219,71,71,0,71,0.15,1.35,0.37,0.57
2017-05-10 12:00:00,2,5947,71,0.64,2,2,0,2,4147,9397,1520,5433,71,71,0,71,0.20,1.00,0.25,0.62
2017-05-10 12:10:00,2,6457,71,0.56,2,2,0,2,2711,11890,2691,5972,71,71,0,71,0.10,1.20,0.37,0.50
2017-05-10 12:20:00,2,8862,71,0.47,2,2,0,2,4930,17406,3556,8340,71,71,0,71,0.10,1.00,0.35,0.42
2017-05-10 12:30:00,2,4533,71,1.52,2,2,0,2,2961,6391,1114,4611,71,71,0,71,0.75,2.30,0.52,1.50
2017-05-10 12:40:00,2,4570,71,1.24,2,2,0,2,3241,5945,832,4716,71,71,0,71,0.80,1.90,0.43,1.12
2017-05-10 12:50:00,2,6821,71,0.72,2,2,0,2,4585,8724,1278,7056,71,71,0,71,0.35,1.20,0.29,0.73
2017-05-10 13:00:00,2,13519,71,0.21,2,2,0,2,6412,19961,3837,13342,71,71,0,71,0.00,0.60,0.19,0.17
2017-05-10 13:10:00,2,15956,71,0.14,2,2,0,2,8865,21253,3422,15538,71,71,0,71,0.00,0.50,0.15,0.12
2017-05-10 13:20:00,2,13528,71,0.10,2,2,0,2,9049,18985,3042,13760,71,71,0,71,0.00,0.25,0.07,0.10
2017-05-10 13:30:00,2,8291,71,0.83,2,2,0,2,5073,12322,2186,8096,71,71,0,71,0.25,1.45,0.41,0.88
2017-05-10 13:40:00,2,5997,71,1.21,2,2,0,2,4632,7920,1010,5801,71,71,0,71,0.30,1.95,0.47,1.10
2017-05-10 13:50:00,2,5807,71,1.22,2,2,0,2,3986,8259,1180,5816,71,71,0,71,0.80,1.55,0.24,1.23
2017-05-10 14:00:00,2,6842,71,0.80,2,2,0,2,4722,9495,1581,6458,71,71,0,71,0.20,1.55,0.43,0.55
2017-05-10 14:10:00,2,6629,71,0.96,2,2,0,2,4693,9312,1280,6814,71,71,0,71,0.30,1.60,0.34,1.00
2017-05-10 14:20:00,2,6488,71,0.84,2,2,0,2,5216,9604,1289,6161,71,71,0,71,0.35,1.60,0.38,0.75
2017-05-10 14:30:00,2,5606,71,1.23,2,2,0,2,3796,8000,1276,5380,71,71,0,71,0.45,2.20,0.59,1.00
2017-05-10 14:40:00,2,5159,71,1.29,2,2,0,2,3390,6494,1108,5616,71,71,0,71,0.60,2.50,0.56,1.25
2017-05-10 14:50:00,2,6541,71,0.79,2,2,0,2,4900,7448,823,6934,71,71,0,71,0.35,1.10,0.25,0.73
2017-05-10 15:00:00,2,6061,71,1.16,2,2,0,2,4762,9526,1302,5714,71,71,0,71,0.60,2.45,0.53,1.18
2017-05-10 15:10:00,2,6478,71,0.97,2,2,0,2,5274,7833,900,6485,71,71,0,71,0.40,1.60,0.38,0.92
2017-05-10 15:20:00,2,6369,71,1.01,2,2,0,2,3829,9205,1542,6368,71,71,0,71,0.40,1.60,0.39,1.00
2017-05-10 15:30:00,2,7036,71,0.82,2,2,0,2,4603,9003,1414,7001,71,71,0,71,0.30,1.65,0.41,0.73
2017-05-10 15:40:00,2,12408,71,0.38,2,2,0,2,6665,20356,5370,10887,71,71,0,71,0.05,1.15,0.40,0.25
2017-05-10 15:50:00,2,18364,71,0.12,2,2,0,2,12127,27788,4548,17982,71,71,0,71,0.00,0.30,0.10,0.15
2017-05-10 16:00:00,2,19838,71,0.02,2,2,0,2,12609,27435,4624,19315,71,71,0,71,0.00,0.10,0.03,0.00
2017-05-10 16:10:00,2,18379,71,0.18,2,2,0,2,9903,31748,6854,16635,71,71,0,71,0.00,0.55,0.17,0.12
2017-05-10 16:20:00,2,19400,72,0.06,2,2,0,2,12468,25323,3886,18678,71,77,2,71,0.00,0.10,0.03,0.05
2017-05-10 16:30:00,2,17921,72,0.12,2,2,0,2,13016,30220,4762,16942,71,77,2,71,0.00,0.25,0.09,0.12
2017-05-10 16:40:00,2,25810,71,0.03,2,2,0,2,19077,34238,4755,25540,71,71,0,71,0.00,0.15,0.05,0.00
2017-05-10 16:50:00,2,33473,76,0.02,2,2,0,2,22289,42940,5827,33719,71,77,2,77,0.00,0.05,0.02,0.00
2017-05-10 17:00:00,2,33460,77,0.02,2,2,0,2,16536,48134,10080,32828,77,77,0,77,0.00,0.05,0.02,0.00
2017-05-10 17:10:00,2,22137,77,0.11,2,2,0,2,12224,28694,5245,23934,77,77,0,77,0.00,0.60,0.17,0.05
2017-05-10 17:20:00,2,16415,71,0.17,2,2,0,2,11962,26180,4307,13904,71,71,0,71,0.00,0.55,0.17,0.12
2017-05-10 17:30:00,2,18020,71,0.04,2,2,0,2,14070,21549,2379,18441,71,71,0,71,0.00,0.10,0.04,0.03
2017-05-10 17:40:00,2,6972,71,0.62,2,2,0,2,2801,13246,3472,6075,71,71,0,71,0.05,1.10,0.42,0.82
2017-05-10 17:50:00,2,3839,71,0.93,2,2,0,2,1343,7173,1674,3962,71,71,0,71,0.35,2.05,0.53,0.80
2017-05-10 18:00:00,2,16269,71,0.14,2,2,0,2,5950,22088,5803,19531,71,71,0,71,0.00,0.35,0.12,0.08
2017-05-10 18:10:00,2,26252,71,0.05,2,2,0,2,15939,33626,5759,26952,71,71,0,71,0.00,0.15,0.05,0.03
2017-05-10 18:20:00,2,23750,71,0.04,2,2,0,2,18962,32713,3724,22884,71,71,0,71,0.00,0.15,0.06,0.00
2017-05-10 18:30:00,2,24483,71,0.06,2,2,0,2,15958,34122,4932,23444,71,71,0,71,0.00,0.30,0.09,0.05
2017-05-10 18:40:00,2,32672,71,0.06,2,2,0,2,20151,41705,6762,33768,71,71,0,71,0.00,0.40,0.12,0.03
2017-05-10 18:50:00,2,31137,75,0.01,2,2,0,2,13185,41763,7969,31145,71,77,3,77,0.00,0.05,0.02,0.00
2017-05-10 19:00:00,2,22091,71,0.15,2,2,0,2,11892,30239,6438,23588,71,71,0,71,0.00,0.45,0.16,0.10
2017-05-10 19:10:00,2,30452,71,0.19,2,2,0,2,17773,44269,8542,27250,71,71,0,71,0.00,0.70,0.24,0.08
2017-05-10 19:20:00,2,45231,72,0.02,2,2,0,2,31717,50000,5395,46299,71,77,2,71,0.00,0.10,0.03,0.00
2017-05-10 19:30:00,2,41521,23,0.00,2,2,0,2,34784,47636,4694,40910,0,77,35,0,0.00,0.00,0.00,0.00
2017-05-10 19:40:00,2,39477,53,0.00,2,2,0,2,33226,49639,4340,38895,0,78,35,74,0.00,0.00,0.00,0.00
2017-05-10 19:50:00,2,36903,0,0.00,2,2,0,2,29093,50000,5780,35340,0,0,0,0,0.00,0.00,0.00,0.00
2017-05-10 20:00:00,2,31783,14,0.01,2,2,0,2,17796,41169,6914,32512,0,71,28,0,0.00,0.05,0.02,0.00
2017-05-10 20:10:00,2,30863,76,0.01,2,2,0,2,24177,36562,4340,31165,71,77,2,77,0.00,0.05,0.02,0.00
2017-05-10 20:20:00,2,12101,74,0.92,2,2,0,2,2012,37918,14347,3038,71,77,3,74,0.00,2.95,0.92,0.72
2017-05-10 20:30:00,2,4096,71,0.92,2,2,0,2,1931,6039,1152,4021,71,71,0,71,0.35,1.55,0.38,0.85
2017-05-10 20:40:00,2,3594,71,0.86,2,2,0,2,2210,5683,1020,3316,71,71,0,71,0.30,1.45,0.33,0.80
2017-05-10 20:50:00,2,2739,71,1.01,2,2,0,2,1719,3860,613,2737,71,71,0,71,0.65,1.65,0.28,0.95
2017-05-10 21:00:00,2,2886,71,0.97,2,2,0,2,1492,4820,969,2562,71,71,0,71,0.40,1.85,0.38,0.95
2017-05-10 21:10:00,2,2314,71,0.95,2,2,0,2,1622,3543,546,2164,71,71,0,71,0.45,1.85,0.40,0.88
2017-05-10 21:20:00,2,3397,71,1.35,2,2,0,2,950,11832,3017,2197,71,71,0,71,0.10,2.55,0.85,1.20
2017-05-10 21:30:00,2,2853,71,0.72,2,2,0,2,980,6176,1520,2468,71,71,0,71,0.05,1.20,0.42,0.75
2017-05-10 21:40:00,2,2445,71,1.02,2,2,0,2,860,4215,1159,2240,71,71,0,71,0.45,1.75,0.35,1.10
2017-05-10 21:50:00,2,2317,71,1.08,2,2,0,2,1077,4301,925,2206,71,71,0,71,0.45,1.45,0.34,1.20
2017-05-10 22:00:00,2,2644,71,1.10,2,2,0,2,1438,4265,757,2652,71,71,0,71,0.35,2.10,0.59,1.08
2017-05-10 22:10:00,2,3602,71,0.83,2,2,0,2,1413,11384,2741,2824,71,71,0,71,0.00,2.00,0.57,0.68
2017-05-10 22:20:00,2,20804,57,0.07,2,2,0,2,7785,40906,10267,18446,0,71,28,71,0.00,0.40,0.13,0.00
2017-05-10 22:30:00,2,30098,21,0.00,2,2,0,2,6505,47300,12844,33223,0,71,33,0,0.00,0.00,0.00,0.00
2017-05-10 22:40:00,2,46649,0,0.00,2,2,0,2,38815,50000,3648,47764,0,0,0,0,0.00,0.00,0.00,0.00
2017-05-10 22:50:00,2,36009,8,0.00,2,2,0,2,22450,50000,9333,38233,0,41,16,0,0.00,0.00,0.00,0.00
2017-05-10 23:00:00,2,22505,37,0.03,2,2,0,2,7584,36430,8358,20946,0,71,32,41,0.00,0.10,0.04,0.00
2017-05-10 23:10:00,2,25744,57,0.05,2,2,0,2,16212,42575,8129,24988,0,71,28,71,0.00,0.25,0.09,0.00
2017-05-10 23:20:00,2,28732,64,0.10,2,2,0,2,13348,43199,11441,28314,0,71,21,71,0.00,0.40,0.14,0.00
2017-05-10 23:30:00,2,25137,57,0.04,2,2,0,2,13983,36342,6559,24663,0,71,28,71,0.00,0.25,0.08,0.00
2017-05-10 23:40:00,2,24207,71,0.08,2,2,0,2,11142,48696,12872,18440,71,71,0,71,0.00,0.25,0.08,0.05
2017-05-10 23:50:00,2,19593,57,0.11,2,2,0,2,3775,43374,12932,13814,0,71,28,71,0.00,0.50,0.18,0.00
